QFA108 RJCC-YSSY

Flight info

Callsign QFA108
Flight time N/A
Altitude 41000
Route TOBBY Y10 DAIGO Y108 INUBO Y820 DAGDA A337 NOGAK 2518N14444E 2309N14526E 2100N14559E 1832N14635E 1443N14712E 0934N14740E 0626N14750E 0154N14759E 00N148E 0249S14802E 0739S14803E 1044S14810E 1200S14814E 1353S14820E 1815S14844E DCT OVRON B462 MK H652 BOREE
Aircraft A332/H-SDE3GHIJ2J3J5M1RVWXY/LB2D1

Departure

Time 2026-05-08 17:03
Airport New Chitose Airport (RJCC)

Arrival

Time N/A
Airport Sydney Kingsford Smith International Airport (YSSY)
Time Latitude Longitude Altitude Speed Heading
2026-05-08 16:58 42.78791 141.68266 93 ft 0 kts 263°
2026-05-08 17:00 42.78792 141.68285 93 ft 3 kts 263°
2026-05-08 17:01 42.78794 141.68310 91 ft 3 kts 263°
2026-05-08 17:01 42.78796 141.68334 94 ft 3 kts 244°
2026-05-08 17:01 42.78807 141.68353 93 ft 2 kts 217°
2026-05-08 17:01 42.78823 141.68363 92 ft 1 kts 172°
2026-05-08 17:02 42.78817 141.68428 93 ft 11 kts 89°
2026-05-08 17:02 42.78828 141.68624 94 ft 31 kts 82°
2026-05-08 17:02 42.78755 141.68820 95 ft 23 kts 158°
2026-05-08 17:03 42.78523 141.68867 93 ft 59 kts 172°
2026-05-08 17:03 42.77895 141.68977 88 ft 124 kts 173°
2026-05-08 17:03 42.76876 141.69165 319 ft 163 kts 174°
2026-05-08 17:03 42.75678 141.69397 1004 ft 187 kts 172°
2026-05-08 17:04 42.74297 141.69675 1728 ft 216 kts 172°
2026-05-08 17:04 42.72768 141.69985 2804 ft 227 kts 173°
2026-05-08 17:04 42.71154 141.70309 3831 ft 241 kts 174°
2026-05-08 17:04 42.69455 141.70650 4897 ft 251 kts 175°
2026-05-08 17:05 42.67706 141.71001 6054 ft 256 kts 175°
2026-05-08 17:05 42.65958 141.71354 7155 ft 259 kts 174°
2026-05-08 17:05 42.64168 141.71714 8247 ft 262 kts 174°
2026-05-08 17:05 42.62350 141.72019 9336 ft 264 kts 178°
2026-05-08 17:06 42.60485 141.72168 10140 ft 276 kts 180°
2026-05-08 17:06 42.58485 141.72276 10548 ft 300 kts 181°
2026-05-08 17:06 42.56306 141.72386 10885 ft 326 kts 181°
2026-05-08 17:06 42.53963 141.72511 11275 ft 346 kts 180°
2026-05-08 17:07 42.51525 141.72647 12032 ft 354 kts 180°
2026-05-08 17:07 42.49049 141.72789 12906 ft 358 kts 181°
2026-05-08 17:07 42.46584 141.72929 13722 ft 362 kts 181°
2026-05-08 17:07 42.44070 141.73072 14623 ft 360 kts 181°
2026-05-08 17:08 42.41588 141.73215 15668 ft 354 kts 181°
2026-05-08 17:08 42.39146 141.73354 16717 ft 349 kts 181°
2026-05-08 17:08 42.36736 141.73490 17689 ft 345 kts 181°
2026-05-08 17:08 42.34346 141.73624 18466 ft 344 kts 181°
2026-05-08 17:09 42.31947 141.73756 19015 ft 348 kts 180°
2026-05-08 17:09 42.29510 141.73890 19456 ft 353 kts 180°
2026-05-08 17:09 42.27041 141.74027 19961 ft 357 kts 180°
2026-05-08 17:09 42.24585 141.74165 20498 ft 359 kts 179°
2026-05-08 17:10 42.22085 141.74305 21018 ft 361 kts 179°
2026-05-08 17:10 42.19564 141.74447 21534 ft 364 kts 179°
2026-05-08 17:10 42.17025 141.74590 21986 ft 367 kts 178°
2026-05-08 17:10 42.14462 141.74733 22426 ft 370 kts 178°
2026-05-08 17:11 42.11875 141.74878 22896 ft 373 kts 178°
2026-05-08 17:11 42.09274 141.75024 23327 ft 376 kts 178°
2026-05-08 17:11 42.06686 141.75169 23693 ft 378 kts 178°
2026-05-08 17:11 42.04047 141.75316 24061 ft 381 kts 179°
2026-05-08 17:12 42.01387 141.75464 24432 ft 385 kts 179°
2026-05-08 17:12 41.98697 141.75613 24750 ft 388 kts 179°
2026-05-08 17:12 41.95997 141.75764 25073 ft 390 kts 180°
2026-05-08 17:12 41.93276 141.75916 25410 ft 393 kts 180°
2026-05-08 17:13 41.90540 141.76098 25764 ft 395 kts 180°
2026-05-08 17:13 41.87790 141.76329 26114 ft 397 kts 180°
2026-05-08 17:13 41.85062 141.76584 26432 ft 399 kts 180°
2026-05-08 17:13 41.82283 141.76854 26768 ft 402 kts 180°
2026-05-08 17:14 41.79490 141.77126 27082 ft 404 kts 180°
2026-05-08 17:14 41.76680 141.77397 27404 ft 406 kts 180°
2026-05-08 17:14 41.73858 141.77665 27676 ft 408 kts 181°
2026-05-08 17:14 41.71018 141.77930 27938 ft 411 kts 182°
2026-05-08 17:15 41.68159 141.78196 28227 ft 413 kts 182°
2026-05-08 17:15 41.65289 141.78462 28531 ft 414 kts 182°
2026-05-08 17:15 41.62404 141.78729 28822 ft 416 kts 182°
2026-05-08 17:15 41.59551 141.78993 29093 ft 418 kts 183°
2026-05-08 17:16 41.56642 141.79262 29371 ft 420 kts 183°
2026-05-08 17:16 41.53731 141.79513 29691 ft 417 kts 185°
2026-05-08 17:16 41.50864 141.79471 30136 ft 408 kts 191°
2026-05-08 17:16 41.48074 141.79016 30463 ft 402 kts 196°
2026-05-08 17:17 41.45338 141.78277 30733 ft 401 kts 198°
2026-05-08 17:17 41.42611 141.77436 30886 ft 403 kts 198°
2026-05-08 17:17 41.39885 141.76542 31132 ft 403 kts 199°
2026-05-08 17:17 41.37165 141.75631 31440 ft 403 kts 199°
2026-05-08 17:18 41.34451 141.74722 31732 ft 402 kts 199°
2026-05-08 17:18 41.31771 141.73832 32002 ft 402 kts 199°
2026-05-08 17:18 41.29060 141.72940 32336 ft 399 kts 200°
2026-05-08 17:18 41.26384 141.72070 32792 ft 395 kts 200°
2026-05-08 17:19 41.23708 141.71201 32964 ft 397 kts 200°
2026-05-08 17:19 41.21011 141.70324 33028 ft 402 kts 199°
2026-05-08 17:19 41.15531 141.68546 33238 ft 407 kts 199°
2026-05-08 17:20 41.12776 141.67657 33472 ft 408 kts 199°
2026-05-08 17:20 41.10055 141.66781 33696 ft 408 kts 199°
2026-05-08 17:20 41.07301 141.65896 33883 ft 408 kts 199°
2026-05-08 17:20 41.04556 141.65015 34063 ft 404 kts 200°
2026-05-08 17:21 41.01832 141.64142 34352 ft 402 kts 200°
2026-05-08 17:21 40.99100 141.63262 34357 ft 407 kts 200°
2026-05-08 17:21 40.93565 141.61478 34429 ft 409 kts 200°
2026-05-08 17:22 40.90803 141.60593 34623 ft 408 kts 200°
2026-05-08 17:22 40.88041 141.59710 34818 ft 408 kts 200°
2026-05-08 17:22 40.85317 141.58838 34990 ft 408 kts 200°
2026-05-08 17:22 40.82556 141.57955 35102 ft 407 kts 200°
2026-05-08 17:23 40.79824 141.57086 35399 ft 401 kts 200°
2026-05-08 17:23 40.77109 141.56221 35480 ft 403 kts 200°
2026-05-08 17:23 40.71614 141.54461 35643 ft 406 kts 200°
2026-05-08 17:24 40.68869 141.53586 35838 ft 406 kts 200°
2026-05-08 17:24 40.66122 141.52712 36016 ft 406 kts 200°
2026-05-08 17:24 40.63411 141.51850 36163 ft 407 kts 200°
2026-05-08 17:24 40.60661 141.50976 36312 ft 407 kts 200°
2026-05-08 17:25 40.57906 141.50102 36449 ft 405 kts 200°
2026-05-08 17:25 40.55175 141.49239 36708 ft 403 kts 200°
2026-05-08 17:25 40.52444 141.48374 36835 ft 404 kts 200°
2026-05-08 17:25 40.49707 141.47506 36956 ft 405 kts 200°
2026-05-08 17:26 40.46966 141.46637 37102 ft 405 kts 200°
2026-05-08 17:26 40.44224 141.45769 37235 ft 406 kts 200°
2026-05-08 17:26 40.41476 141.44900 37368 ft 406 kts 200°
2026-05-08 17:26 40.38724 141.44031 37496 ft 407 kts 200°
2026-05-08 17:27 40.33235 141.42300 37458 ft 409 kts 201°
2026-05-08 17:27 40.27701 141.40560 37387 ft 409 kts 201°
2026-05-08 17:28 40.22169 141.38823 37169 ft 408 kts 201°
2026-05-08 17:28 40.19408 141.37958 37046 ft 408 kts 201°
2026-05-08 17:28 40.16649 141.37093 36931 ft 407 kts 201°
2026-05-08 17:29 40.13891 141.36229 36804 ft 410 kts 201°
2026-05-08 17:29 40.11147 141.35367 36691 ft 412 kts 201°
2026-05-08 17:29 40.08361 141.34495 36540 ft 411 kts 201°
2026-05-08 17:29 40.05582 141.33628 36384 ft 410 kts 201°
2026-05-08 17:30 40.00057 141.31903 36585 ft 407 kts 201°
2026-05-08 17:30 39.97308 141.31016 36726 ft 407 kts 201°
2026-05-08 17:30 39.94564 141.30115 36969 ft 405 kts 201°
2026-05-08 17:31 39.91845 141.29217 37322 ft 402 kts 202°
2026-05-08 17:31 39.89174 141.28334 37474 ft 401 kts 202°
2026-05-08 17:31 39.83739 141.26534 37638 ft 405 kts 202°
2026-05-08 17:32 39.81006 141.25633 37798 ft 405 kts 202°
2026-05-08 17:32 39.78266 141.24733 37936 ft 406 kts 202°
2026-05-08 17:32 39.75522 141.23834 38058 ft 408 kts 202°
2026-05-08 17:32 39.72769 141.22933 38253 ft 408 kts 202°
2026-05-08 17:33 39.70038 141.22045 38660 ft 401 kts 202°
2026-05-08 17:33 39.67347 141.21175 38951 ft 397 kts 202°
2026-05-08 17:33 39.61987 141.19419 38793 ft 406 kts 202°
2026-05-08 17:34 39.56453 141.17601 38720 ft 413 kts 202°
2026-05-08 17:34 39.50888 141.15796 38736 ft 409 kts 202°
2026-05-08 17:35 39.45381 141.14019 38724 ft 407 kts 202°
2026-05-08 17:35 39.39923 141.12301 38727 ft 407 kts 202°
2026-05-08 17:36 39.34408 141.10635 38725 ft 407 kts 202°
2026-05-08 17:36 39.28902 141.08988 38722 ft 404 kts 202°
2026-05-08 17:37 39.23433 141.07349 38727 ft 402 kts 202°
2026-05-08 17:37 39.18015 141.05720 38730 ft 401 kts 203°
2026-05-08 17:38 39.12556 141.04079 38727 ft 401 kts 203°
2026-05-08 17:38 39.07155 141.02461 38727 ft 398 kts 202°
2026-05-08 17:39 39.01777 141.00853 38733 ft 396 kts 202°
2026-05-08 17:39 38.96400 140.99245 38732 ft 395 kts 203°
2026-05-08 17:40 38.91077 140.97654 38668 ft 396 kts 203°
2026-05-08 17:40 38.85723 140.96060 38729 ft 393 kts 202°
2026-05-08 17:41 38.80382 140.94474 38729 ft 392 kts 202°
2026-05-08 17:41 38.75086 140.92899 38728 ft 393 kts 204°
2026-05-08 17:42 38.69742 140.91309 38718 ft 396 kts 203°
2026-05-08 17:42 38.64366 140.89720 38732 ft 394 kts 203°
2026-05-08 17:43 38.59059 140.88156 38736 ft 393 kts 203°
2026-05-08 17:43 38.53720 140.86581 38738 ft 393 kts 203°
2026-05-08 17:44 38.48386 140.85002 38740 ft 396 kts 203°
2026-05-08 17:44 38.42986 140.83411 38741 ft 397 kts 203°
2026-05-08 17:45 38.37620 140.81838 38741 ft 397 kts 203°
2026-05-08 17:45 38.32225 140.80257 38713 ft 397 kts 202°
2026-05-08 17:46 38.26826 140.78675 38738 ft 398 kts 203°
2026-05-08 17:46 38.21418 140.77094 38744 ft 398 kts 203°
2026-05-08 17:47 38.16016 140.75516 38721 ft 398 kts 203°
2026-05-08 17:47 38.11518 140.74205 38691 ft 398 kts 203°
2026-05-08 17:48 38.05222 140.72372 38728 ft 398 kts 203°
2026-05-08 17:48 37.99806 140.70797 38737 ft 398 kts 202°
2026-05-08 17:49 37.94419 140.69234 38749 ft 398 kts 202°
2026-05-08 17:49 37.89016 140.67669 38760 ft 399 kts 203°
2026-05-08 17:50 37.84498 140.66358 38755 ft 402 kts 203°
2026-05-08 17:50 37.79034 140.64779 38765 ft 402 kts 203°
2026-05-08 17:51 37.73561 140.63202 38770 ft 402 kts 203°
2026-05-08 17:51 37.68133 140.61639 38759 ft 402 kts 202°
2026-05-08 17:52 37.62652 140.60058 38776 ft 404 kts 202°
2026-05-08 17:53 37.54443 140.57698 38778 ft 404 kts 202°
2026-05-08 17:53 37.48943 140.56122 38748 ft 404 kts 202°
2026-05-08 17:54 37.43466 140.54552 38784 ft 406 kts 202°
2026-05-08 17:54 37.37923 140.52966 38784 ft 407 kts 202°
2026-05-08 17:55 37.32423 140.51396 38799 ft 407 kts 202°
2026-05-08 17:55 37.26885 140.49818 38774 ft 406 kts 202°
2026-05-08 17:56 37.21376 140.48253 38771 ft 404 kts 202°
2026-05-08 17:56 37.15913 140.46702 38776 ft 404 kts 202°
2026-05-08 17:57 37.10422 140.45142 38778 ft 404 kts 202°
2026-05-08 17:57 37.04964 140.43594 38770 ft 403 kts 202°
2026-05-08 17:58 36.99499 140.42050 38788 ft 401 kts 202°
2026-05-08 17:58 36.94070 140.40515 38775 ft 402 kts 202°
2026-05-08 17:59 36.88590 140.38967 38782 ft 403 kts 202°
2026-05-08 17:59 36.83147 140.37435 38762 ft 402 kts 202°
2026-05-08 18:00 36.77603 140.36149 38774 ft 410 kts 195°
2026-05-08 18:00 36.71799 140.36459 38774 ft 433 kts 181°
2026-05-08 18:00 36.68834 140.37419 38771 ft 444 kts 175°
2026-05-08 18:01 36.62968 140.39928 38760 ft 450 kts 173°
2026-05-08 18:01 36.57080 140.42654 38762 ft 450 kts 173°
2026-05-08 18:02 36.51205 140.45343 38758 ft 448 kts 173°
2026-05-08 18:02 36.45378 140.47954 38756 ft 447 kts 173°
2026-05-08 18:03 36.39514 140.50553 38751 ft 446 kts 173°
2026-05-08 18:03 36.33679 140.53134 38714 ft 446 kts 173°
2026-05-08 18:04 36.27810 140.55728 38747 ft 448 kts 173°
2026-05-08 18:04 36.21965 140.58309 38748 ft 448 kts 173°
2026-05-08 18:05 36.16082 140.60906 38743 ft 448 kts 173°
2026-05-08 18:05 36.10197 140.63498 38758 ft 448 kts 173°
2026-05-08 18:06 36.04307 140.66088 38754 ft 448 kts 173°
2026-05-08 18:06 35.98464 140.68655 38757 ft 447 kts 173°
2026-05-08 18:07 35.92594 140.71228 38757 ft 447 kts 173°
2026-05-08 18:07 35.86748 140.73785 38756 ft 447 kts 173°
2026-05-08 18:08 35.80872 140.76352 38757 ft 448 kts 173°
2026-05-08 18:08 35.75041 140.79085 38757 ft 459 kts 167°
2026-05-08 18:09 35.72217 140.81073 38754 ft 475 kts 158°
2026-05-08 18:09 35.69582 140.83652 38715 ft 489 kts 152°
2026-05-08 18:09 35.64577 140.89474 38755 ft 499 kts 148°
2026-05-08 18:10 35.59689 140.95510 38756 ft 500 kts 148°
2026-05-08 18:10 35.54773 141.01558 38731 ft 499 kts 148°
2026-05-08 18:11 35.49819 141.07561 38753 ft 502 kts 148°
2026-05-08 18:11 35.44855 141.13536 38747 ft 502 kts 148°
2026-05-08 18:12 35.39734 141.19256 38747 ft 485 kts 157°
2026-05-08 18:12 35.34147 141.23763 38752 ft 478 kts 161°
2026-05-08 18:13 35.28489 141.27976 38752 ft 477 kts 162°
2026-05-08 18:13 35.22779 141.32163 38751 ft 478 kts 162°
2026-05-08 18:14 35.17099 141.36344 38758 ft 479 kts 162°
2026-05-08 18:14 35.11390 141.40564 38725 ft 479 kts 161°
2026-05-08 18:15 35.05683 141.44782 38763 ft 479 kts 161°
2026-05-08 18:15 35.00003 141.48972 38768 ft 479 kts 161°
2026-05-08 18:16 34.94283 141.53184 38761 ft 479 kts 161°
2026-05-08 18:16 34.88612 141.57355 38777 ft 477 kts 161°
2026-05-08 18:17 34.82907 141.61541 38778 ft 477 kts 161°
2026-05-08 18:17 34.77246 141.65687 38785 ft 476 kts 161°
2026-05-08 18:18 34.71555 141.69850 38788 ft 475 kts 161°
2026-05-08 18:18 34.65903 141.73978 38790 ft 475 kts 161°
2026-05-08 18:19 34.60219 141.78119 38795 ft 477 kts 161°
2026-05-08 18:19 34.54508 141.82272 38794 ft 479 kts 161°
2026-05-08 18:20 34.48799 141.86419 38800 ft 482 kts 161°
2026-05-08 18:20 34.43020 141.90614 38807 ft 483 kts 161°
2026-05-08 18:21 34.37241 141.94806 38810 ft 483 kts 161°
2026-05-08 18:21 34.31506 141.98956 38794 ft 482 kts 161°
2026-05-08 18:22 34.25747 142.03113 38815 ft 484 kts 161°
2026-05-08 18:22 34.19951 142.07290 38815 ft 484 kts 161°
2026-05-08 18:23 34.14187 142.11440 38802 ft 484 kts 161°
2026-05-08 18:23 34.08372 142.15617 38826 ft 487 kts 161°
2026-05-08 18:24 34.02565 142.19784 38832 ft 487 kts 161°
2026-05-08 18:24 33.96726 142.23969 38822 ft 488 kts 160°
2026-05-08 18:25 33.90902 142.28133 38833 ft 489 kts 160°
2026-05-08 18:25 33.85036 142.32314 38838 ft 488 kts 162°
2026-05-08 18:26 33.82014 142.34071 38816 ft 474 kts 170°
2026-05-08 18:26 33.78915 142.35250 38846 ft 462 kts 176°
2026-05-08 18:26 33.72670 142.36871 38845 ft 458 kts 180°
2026-05-08 18:27 33.67445 142.38015 38849 ft 458 kts 180°
2026-05-08 18:27 33.60151 142.39578 38847 ft 458 kts 180°
2026-05-08 18:28 33.53841 142.40959 38852 ft 459 kts 180°
2026-05-08 18:28 33.47541 142.42357 38860 ft 460 kts 180°
2026-05-08 18:29 33.41266 142.43752 38857 ft 460 kts 179°
2026-05-08 18:29 33.34997 142.45142 38861 ft 460 kts 179°
2026-05-08 18:30 33.28676 142.46540 38867 ft 460 kts 179°
2026-05-08 18:30 33.22367 142.47934 38866 ft 460 kts 179°
2026-05-08 18:31 33.16089 142.49318 38878 ft 461 kts 179°
2026-05-08 18:31 33.09770 142.50709 38878 ft 461 kts 179°
2026-05-08 18:32 33.03440 142.52102 38862 ft 461 kts 179°
2026-05-08 18:32 32.97146 142.53483 38888 ft 463 kts 179°
2026-05-08 18:33 32.90770 142.54880 38890 ft 464 kts 179°
2026-05-08 18:33 32.84446 142.56266 38880 ft 464 kts 179°
2026-05-08 18:34 32.78068 142.57660 38897 ft 465 kts 179°
2026-05-08 18:34 32.71727 142.59044 38895 ft 465 kts 179°
2026-05-08 18:35 32.65386 142.60427 38895 ft 465 kts 179°
2026-05-08 18:35 32.59014 142.61815 38911 ft 465 kts 179°
2026-05-08 18:36 32.52632 142.63202 38906 ft 465 kts 179°
2026-05-08 18:36 32.46289 142.64579 38905 ft 465 kts 179°
2026-05-08 18:37 32.39915 142.65959 38911 ft 465 kts 178°
2026-05-08 18:37 32.34618 142.67106 38914 ft 466 kts 178°
2026-05-08 18:38 32.27177 142.68714 38919 ft 466 kts 178°
2026-05-08 18:38 32.20834 142.70084 38921 ft 466 kts 178°
2026-05-08 18:39 32.15515 142.71230 38922 ft 466 kts 178°
2026-05-08 18:39 32.09119 142.72606 38931 ft 466 kts 178°
2026-05-08 18:40 32.02724 142.73981 38918 ft 466 kts 178°
2026-05-08 18:40 31.96360 142.75346 38933 ft 468 kts 178°
2026-05-08 18:41 31.89928 142.76725 38938 ft 468 kts 178°
2026-05-08 18:41 31.83547 142.78091 38913 ft 467 kts 178°
2026-05-08 18:42 31.77116 142.79465 38937 ft 468 kts 178°
2026-05-08 18:42 31.70724 142.80829 38949 ft 469 kts 178°
2026-05-08 18:43 31.64275 142.82204 38947 ft 469 kts 178°
2026-05-08 18:43 31.57872 142.83567 38952 ft 470 kts 178°
2026-05-08 18:44 31.51409 142.84939 38951 ft 471 kts 178°
2026-05-08 18:44 31.44993 142.86302 38952 ft 471 kts 178°
2026-05-08 18:45 31.38564 142.87664 38953 ft 472 kts 178°
2026-05-08 18:45 31.32077 142.89035 38955 ft 474 kts 178°
2026-05-08 18:46 31.25605 142.90404 38957 ft 474 kts 178°
2026-05-08 18:46 31.19097 142.91779 38961 ft 475 kts 178°
2026-05-08 18:47 31.12597 142.93147 38966 ft 476 kts 178°
2026-05-08 18:47 31.06051 142.94525 38966 ft 477 kts 178°
2026-05-08 18:48 30.99511 142.95900 38962 ft 477 kts 178°
2026-05-08 18:48 30.93010 142.97264 38972 ft 478 kts 178°
2026-05-08 18:49 30.86455 142.98638 38977 ft 478 kts 178°
2026-05-08 18:49 30.79892 143.00012 38964 ft 478 kts 177°
2026-05-08 18:50 30.73380 143.01373 38980 ft 478 kts 177°
2026-05-08 18:50 30.66827 143.02742 38982 ft 477 kts 177°
2026-05-08 18:51 30.60273 143.04108 38985 ft 477 kts 177°
2026-05-08 18:51 30.53754 143.05464 38987 ft 477 kts 177°
2026-05-08 18:52 30.47241 143.06818 38992 ft 477 kts 177°
2026-05-08 18:52 30.40676 143.08180 38991 ft 477 kts 177°
2026-05-08 18:53 30.34166 143.09530 38989 ft 478 kts 177°
2026-05-08 18:53 30.27595 143.10890 38995 ft 478 kts 177°
2026-05-08 18:54 30.21066 143.12240 38990 ft 478 kts 177°
2026-05-08 18:54 30.14512 143.13593 38993 ft 478 kts 177°
2026-05-08 18:55 30.04675 143.15619 39002 ft 480 kts 177°
2026-05-08 18:56 29.98103 143.17334 38999 ft 486 kts 172°
2026-05-08 18:56 29.91619 143.19516 38999 ft 488 kts 170°
2026-05-08 18:57 29.85078 143.21809 39001 ft 490 kts 170°
2026-05-08 18:57 29.78588 143.24087 39004 ft 490 kts 170°
2026-05-08 18:58 29.72051 143.26366 39002 ft 489 kts 169°
2026-05-08 18:58 29.65556 143.28621 39007 ft 488 kts 169°
2026-05-08 18:59 29.59056 143.30871 39009 ft 487 kts 169°
2026-05-08 18:59 29.52554 143.33119 38996 ft 487 kts 169°
2026-05-08 19:00 29.46092 143.35351 39013 ft 487 kts 169°
2026-05-08 19:00 29.39593 143.37593 39017 ft 487 kts 169°
2026-05-08 19:01 29.33093 143.39832 39008 ft 487 kts 169°
2026-05-08 19:01 29.26636 143.42053 39020 ft 487 kts 169°
2026-05-08 19:02 29.20135 143.44287 39019 ft 487 kts 169°
2026-05-08 19:02 29.13620 143.46523 39025 ft 487 kts 169°
2026-05-08 19:03 29.07149 143.48740 39016 ft 488 kts 169°
2026-05-08 19:03 29.00629 143.50971 39031 ft 488 kts 169°
2026-05-08 19:04 28.94148 143.53187 39029 ft 488 kts 169°
2026-05-08 19:04 28.87611 143.55419 39028 ft 488 kts 169°
2026-05-08 19:05 28.81130 143.57628 39029 ft 489 kts 169°
2026-05-08 19:05 28.74578 143.59858 39034 ft 489 kts 169°
2026-05-08 19:06 28.68082 143.62067 39030 ft 489 kts 168°
2026-05-08 19:06 28.61537 143.64289 39037 ft 490 kts 168°
2026-05-08 19:07 28.55023 143.66498 39041 ft 491 kts 168°
2026-05-08 19:07 28.48469 143.68718 39043 ft 490 kts 168°
2026-05-08 19:08 28.41963 143.70919 39045 ft 490 kts 168°
2026-05-08 19:08 28.35402 143.73136 39045 ft 490 kts 168°
2026-05-08 19:09 28.28881 143.75336 39046 ft 491 kts 168°
2026-05-08 19:09 28.22311 143.77549 39047 ft 491 kts 168°
2026-05-08 19:10 28.15778 143.79747 39050 ft 492 kts 168°
2026-05-08 19:10 28.09192 143.81961 39050 ft 492 kts 168°
2026-05-08 19:11 28.02658 143.84154 39046 ft 492 kts 168°
2026-05-08 19:11 27.96064 143.86365 39048 ft 493 kts 168°
2026-05-08 19:12 27.89513 143.88558 39053 ft 493 kts 168°
2026-05-08 19:12 27.82939 143.90756 39044 ft 493 kts 168°
2026-05-08 19:13 27.76349 143.92957 39056 ft 493 kts 168°
2026-05-08 19:13 27.69788 143.95145 39056 ft 493 kts 168°
2026-05-08 19:14 27.63188 143.97344 39058 ft 493 kts 168°
2026-05-08 19:14 27.56604 143.99535 39058 ft 493 kts 167°
2026-05-08 19:15 27.50048 144.01713 39059 ft 493 kts 167°
2026-05-08 19:15 27.43446 144.03904 39064 ft 493 kts 167°
2026-05-08 19:16 27.36884 144.06079 39061 ft 493 kts 167°
2026-05-08 19:16 27.30320 144.08252 39064 ft 493 kts 167°
2026-05-08 19:17 27.23715 144.10436 39064 ft 493 kts 167°
2026-05-08 19:17 27.17129 144.12611 39064 ft 493 kts 167°
2026-05-08 19:18 27.10572 144.14773 39068 ft 493 kts 167°
2026-05-08 19:18 27.04019 144.16932 39069 ft 493 kts 167°
2026-05-08 19:19 26.97427 144.19101 39072 ft 493 kts 167°
2026-05-08 19:19 26.90827 144.21270 39071 ft 493 kts 167°
2026-05-08 19:20 26.84259 144.23425 39073 ft 494 kts 167°
2026-05-08 19:20 26.77654 144.25591 39075 ft 494 kts 167°
2026-05-08 19:21 26.71087 144.27741 39067 ft 493 kts 167°
2026-05-08 19:21 26.64490 144.29898 39075 ft 494 kts 167°
2026-05-08 19:22 26.57877 144.32059 39081 ft 494 kts 167°
2026-05-08 19:22 26.51309 144.34201 39079 ft 494 kts 167°
2026-05-08 19:23 26.44684 144.36360 39080 ft 494 kts 167°
2026-05-08 19:23 26.38102 144.38502 39077 ft 495 kts 167°
2026-05-08 19:24 26.31475 144.40656 39081 ft 495 kts 167°
2026-05-08 19:24 26.24889 144.42795 39079 ft 495 kts 167°
2026-05-08 19:25 26.18269 144.44942 39083 ft 495 kts 167°
2026-05-08 19:25 26.11653 144.47085 39082 ft 495 kts 167°
2026-05-08 19:26 26.05037 144.49225 39084 ft 495 kts 167°
2026-05-08 19:26 25.98452 144.51353 39082 ft 495 kts 167°
2026-05-08 19:27 25.91816 144.53495 39085 ft 496 kts 167°
2026-05-08 19:27 25.86299 144.55274 39086 ft 496 kts 167°
2026-05-08 19:28 25.79678 144.57407 39080 ft 496 kts 167°
2026-05-08 19:28 25.73029 144.59546 39089 ft 497 kts 166°
2026-05-08 19:29 25.66423 144.61668 39088 ft 497 kts 166°
2026-05-08 19:29 25.59779 144.63801 39086 ft 497 kts 167°
2026-05-08 19:30 25.53116 144.65937 39090 ft 497 kts 166°
2026-05-08 19:30 25.46500 144.68056 39082 ft 498 kts 166°
2026-05-08 19:31 25.39818 144.70193 39086 ft 498 kts 166°
2026-05-08 19:31 25.33194 144.72310 39076 ft 498 kts 166°
2026-05-08 19:32 25.26530 144.74462 39091 ft 498 kts 166°
2026-05-08 19:32 25.19884 144.76664 39091 ft 498 kts 166°
2026-05-08 19:33 25.13290 144.78855 39091 ft 497 kts 166°
2026-05-08 19:33 25.06653 144.81052 39095 ft 497 kts 166°
2026-05-08 19:34 25.00005 144.83246 39094 ft 498 kts 166°
2026-05-08 19:34 24.93403 144.85421 39090 ft 498 kts 166°
2026-05-08 19:35 24.86762 144.87608 39091 ft 497 kts 166°
2026-05-08 19:35 24.80141 144.89785 39092 ft 498 kts 166°
2026-05-08 19:36 24.73487 144.91970 39096 ft 499 kts 166°
2026-05-08 19:36 24.66809 144.94161 39096 ft 499 kts 166°
2026-05-08 19:37 24.60192 144.96330 39093 ft 499 kts 166°
2026-05-08 19:37 24.53513 144.98517 39099 ft 499 kts 166°
2026-05-08 19:38 24.46838 145.00699 39092 ft 499 kts 166°
2026-05-08 19:38 24.40206 145.02866 39096 ft 498 kts 166°
2026-05-08 19:39 24.33542 145.05040 39093 ft 498 kts 166°
2026-05-08 19:39 24.26927 145.07196 39097 ft 498 kts 166°
2026-05-08 19:40 24.20276 145.09361 39093 ft 498 kts 166°
2026-05-08 19:40 24.13608 145.11530 39094 ft 499 kts 166°
2026-05-08 19:41 24.06949 145.13693 39095 ft 499 kts 166°
2026-05-08 19:41 24.00310 145.15848 39097 ft 499 kts 166°
2026-05-08 19:42 23.93680 145.17997 39096 ft 499 kts 166°
2026-05-08 19:42 23.87000 145.20160 39096 ft 499 kts 166°
2026-05-08 19:43 23.80333 145.22317 39094 ft 499 kts 166°
2026-05-08 19:43 23.73696 145.24461 39094 ft 499 kts 166°
2026-05-08 19:44 23.67012 145.26619 39094 ft 499 kts 166°
2026-05-08 19:44 23.60379 145.28758 39096 ft 498 kts 166°
2026-05-08 19:45 23.53713 145.30905 39092 ft 498 kts 166°
2026-05-08 19:45 23.47088 145.33036 39092 ft 498 kts 166°
2026-05-08 19:46 23.40462 145.35166 39091 ft 498 kts 167°
2026-05-08 19:46 23.30472 145.38373 39090 ft 498 kts 167°
2026-05-08 19:47 23.23861 145.40492 39091 ft 498 kts 167°
2026-05-08 19:47 23.17195 145.42628 39083 ft 497 kts 167°
2026-05-08 19:48 23.10549 145.44581 39087 ft 496 kts 170°
2026-05-08 19:48 23.03825 145.46302 39084 ft 495 kts 171°
2026-05-08 19:49 22.97131 145.47989 39087 ft 495 kts 170°
2026-05-08 19:49 22.90441 145.49700 39084 ft 495 kts 171°
2026-05-08 19:50 22.83722 145.51437 39086 ft 495 kts 171°
2026-05-08 19:50 22.77005 145.53175 39081 ft 495 kts 171°
2026-05-08 19:51 22.70330 145.54901 39083 ft 495 kts 171°
2026-05-08 19:51 22.63605 145.56636 39079 ft 495 kts 171°
2026-05-08 19:52 22.56935 145.58356 39083 ft 495 kts 171°
2026-05-08 19:52 22.50220 145.60085 39084 ft 495 kts 171°
2026-05-08 19:53 22.43503 145.61813 39083 ft 495 kts 171°
2026-05-08 19:53 22.36839 145.63526 39078 ft 495 kts 172°
2026-05-08 19:54 22.30099 145.65256 39079 ft 495 kts 172°
2026-05-08 19:54 22.23419 145.66969 39080 ft 495 kts 172°
2026-05-08 19:55 22.16699 145.68691 39070 ft 495 kts 172°
2026-05-08 19:55 22.10022 145.70401 39078 ft 495 kts 172°
2026-05-08 19:56 22.03303 145.72119 39072 ft 495 kts 172°
2026-05-08 19:56 21.96624 145.73825 39072 ft 495 kts 172°
2026-05-08 19:57 21.89908 145.75540 39065 ft 495 kts 172°
2026-05-08 19:57 21.83230 145.77242 39072 ft 495 kts 172°
2026-05-08 19:58 21.76501 145.78957 39076 ft 495 kts 172°
2026-05-08 19:58 21.69778 145.80668 39074 ft 496 kts 172°
2026-05-08 19:59 21.63106 145.82364 39063 ft 496 kts 172°
2026-05-08 19:59 21.56377 145.84073 39069 ft 496 kts 172°
2026-05-08 20:00 21.49653 145.85780 39070 ft 496 kts 172°
2026-05-08 20:00 21.42947 145.87480 39069 ft 496 kts 172°
2026-05-08 20:01 21.36217 145.89185 39070 ft 496 kts 172°
2026-05-08 20:01 21.29522 145.90879 39066 ft 496 kts 172°
2026-05-08 20:02 21.22793 145.92580 39068 ft 496 kts 172°
2026-05-08 20:02 21.16104 145.94270 39065 ft 496 kts 172°
2026-05-08 20:03 21.09361 145.95972 39063 ft 496 kts 172°
2026-05-08 20:03 21.02670 145.97659 39066 ft 496 kts 172°
2026-05-08 20:04 20.95917 145.99348 39060 ft 496 kts 173°
2026-05-08 20:04 20.89215 146.01001 39062 ft 496 kts 173°
2026-05-08 20:05 20.82473 146.02661 39059 ft 496 kts 173°
2026-05-08 20:05 20.75774 146.04310 39059 ft 496 kts 173°
2026-05-08 20:06 20.69033 146.05970 39056 ft 496 kts 173°
2026-05-08 20:06 20.62323 146.07620 39056 ft 497 kts 173°
2026-05-08 20:07 20.55557 146.09284 39056 ft 497 kts 173°
2026-05-08 20:07 20.48858 146.10930 39056 ft 497 kts 173°
2026-05-08 20:08 20.42092 146.12590 39056 ft 497 kts 173°
2026-05-08 20:08 20.35392 146.14233 39053 ft 497 kts 173°
2026-05-08 20:09 20.28648 146.15885 39050 ft 496 kts 173°
2026-05-08 20:09 20.21922 146.17531 39051 ft 496 kts 173°
2026-05-08 20:10 20.15220 146.19169 39050 ft 496 kts 173°
2026-05-08 20:10 20.08480 146.20816 39036 ft 496 kts 173°
2026-05-08 20:11 20.01739 146.22461 39047 ft 496 kts 173°
2026-05-08 20:11 19.95038 146.24095 39045 ft 497 kts 173°
2026-05-08 20:12 19.88277 146.25743 39047 ft 496 kts 173°
2026-05-08 20:12 19.81561 146.27378 39031 ft 496 kts 173°
2026-05-08 20:13 19.74803 146.29022 39041 ft 497 kts 173°
2026-05-08 20:13 19.68091 146.30653 39037 ft 497 kts 173°
2026-05-08 20:14 19.61371 146.32284 39040 ft 497 kts 173°
2026-05-08 20:14 19.54607 146.33925 39028 ft 498 kts 173°
2026-05-08 20:15 19.47843 146.35564 39040 ft 498 kts 173°
2026-05-08 20:15 19.41109 146.37196 39037 ft 498 kts 173°
2026-05-08 20:16 19.35483 146.38557 39037 ft 498 kts 173°
2026-05-08 20:16 19.28729 146.40191 39034 ft 498 kts 173°
2026-05-08 20:17 19.21945 146.41830 39031 ft 499 kts 173°
2026-05-08 20:17 19.15169 146.43465 39032 ft 499 kts 173°
2026-05-08 20:18 19.08436 146.45090 39031 ft 499 kts 173°
2026-05-08 20:18 19.01662 146.46722 39032 ft 499 kts 173°
2026-05-08 20:19 18.94878 146.48356 39026 ft 499 kts 173°
2026-05-08 20:19 18.88127 146.49979 39023 ft 500 kts 173°
2026-05-08 20:20 18.81321 146.51616 39026 ft 500 kts 173°
2026-05-08 20:20 18.74530 146.53247 39023 ft 500 kts 173°
2026-05-08 20:21 18.67774 146.54869 39023 ft 500 kts 173°
2026-05-08 20:21 18.60978 146.56499 39023 ft 500 kts 173°
2026-05-08 20:22 18.54212 146.58119 39023 ft 500 kts 173°
2026-05-08 20:22 18.47385 146.59439 39027 ft 496 kts 177°
2026-05-08 20:23 18.40595 146.60506 39018 ft 496 kts 177°
2026-05-08 20:23 18.33744 146.61576 39018 ft 496 kts 177°
2026-05-08 20:24 18.26918 146.62679 39018 ft 496 kts 177°
2026-05-08 20:24 18.20109 146.63797 39015 ft 496 kts 177°
2026-05-08 20:25 18.13310 146.64917 39013 ft 496 kts 176°
2026-05-08 20:25 18.06478 146.66040 39009 ft 496 kts 176°
2026-05-08 20:26 17.99696 146.67152 39015 ft 496 kts 176°
2026-05-08 20:26 17.92869 146.68271 39007 ft 495 kts 176°
2026-05-08 20:27 17.86079 146.69383 39010 ft 495 kts 176°
2026-05-08 20:27 17.79256 146.70500 39006 ft 495 kts 176°
2026-05-08 20:28 17.72477 146.71608 39009 ft 495 kts 176°
2026-05-08 20:28 17.65655 146.72723 38999 ft 495 kts 176°
2026-05-08 20:29 17.58834 146.73836 39002 ft 494 kts 176°
2026-05-08 20:29 17.52063 146.74941 39003 ft 494 kts 176°
2026-05-08 20:30 17.45293 146.76045 38998 ft 494 kts 176°
2026-05-08 20:30 17.38493 146.77152 39002 ft 494 kts 176°
2026-05-08 20:31 17.31679 146.78261 38991 ft 493 kts 176°
2026-05-08 20:31 17.24923 146.79361 38993 ft 492 kts 176°
2026-05-08 20:32 17.18162 146.80460 38993 ft 492 kts 176°
2026-05-08 20:32 17.11381 146.81560 38990 ft 492 kts 176°
2026-05-08 20:33 17.04654 146.82652 38986 ft 492 kts 176°
2026-05-08 20:33 16.97873 146.83752 38989 ft 491 kts 176°
2026-05-08 20:34 16.91158 146.84840 38991 ft 491 kts 176°
2026-05-08 20:35 16.81031 146.86479 38989 ft 492 kts 176°
2026-05-08 20:35 16.74253 146.87575 38982 ft 491 kts 176°
2026-05-08 20:36 16.67497 146.88668 38985 ft 490 kts 176°
2026-05-08 20:36 16.60778 146.89754 38987 ft 490 kts 176°
2026-05-08 20:37 16.54040 146.90841 38983 ft 490 kts 176°
2026-05-08 20:37 16.47292 146.91929 38978 ft 490 kts 175°
2026-05-08 20:38 16.40599 146.93008 38980 ft 488 kts 175°
2026-05-08 20:38 16.33862 146.94094 38980 ft 488 kts 175°
2026-05-08 20:39 16.27190 146.95167 38974 ft 488 kts 175°
2026-05-08 20:39 16.20459 146.96250 38971 ft 487 kts 175°
2026-05-08 20:40 16.13755 146.97328 38974 ft 486 kts 175°
2026-05-08 20:40 16.07105 146.98396 38971 ft 485 kts 175°
2026-05-08 20:41 16.00427 146.99468 38974 ft 485 kts 175°
2026-05-08 20:41 15.93741 147.00540 38968 ft 485 kts 175°
2026-05-08 20:42 15.87097 147.01605 38969 ft 485 kts 175°
2026-05-08 20:42 15.80413 147.02676 38966 ft 485 kts 175°
2026-05-08 20:43 15.73724 147.03746 38968 ft 485 kts 175°
2026-05-08 20:43 15.67031 147.04817 38968 ft 485 kts 175°
2026-05-08 20:44 15.60387 147.05879 38964 ft 485 kts 175°
2026-05-08 20:44 15.53706 147.06947 38969 ft 485 kts 175°
2026-05-08 20:45 15.47067 147.08007 38966 ft 485 kts 175°
2026-05-08 20:45 15.40393 147.09072 38965 ft 485 kts 175°
2026-05-08 20:46 15.33715 147.10137 38961 ft 485 kts 175°
2026-05-08 20:46 15.27075 147.11195 38959 ft 485 kts 175°
2026-05-08 20:47 15.20391 147.12259 38963 ft 485 kts 175°
2026-05-08 20:47 15.13726 147.13320 38964 ft 485 kts 175°
2026-05-08 20:48 15.07041 147.14383 38959 ft 485 kts 175°
2026-05-08 20:48 15.00347 147.15447 38960 ft 486 kts 174°
2026-05-08 20:49 14.93680 147.16506 38958 ft 487 kts 174°
2026-05-08 20:49 14.86979 147.17570 38957 ft 487 kts 174°
2026-05-08 20:50 14.80305 147.18629 38959 ft 487 kts 174°
2026-05-08 20:50 14.73593 147.19694 38957 ft 487 kts 174°
2026-05-08 20:51 14.66881 147.20547 38956 ft 488 kts 178°
2026-05-08 20:51 14.60096 147.21143 38955 ft 488 kts 179°
2026-05-08 20:52 14.53301 147.21717 38950 ft 488 kts 178°
2026-05-08 20:52 14.46559 147.22318 38950 ft 489 kts 178°
2026-05-08 20:53 14.39765 147.22942 38949 ft 488 kts 178°
2026-05-08 20:53 14.33014 147.23567 38944 ft 488 kts 178°
2026-05-08 20:54 14.26242 147.24193 38953 ft 488 kts 178°
2026-05-08 20:54 14.19470 147.24817 38944 ft 488 kts 178°
2026-05-08 20:55 14.12729 147.25437 38949 ft 487 kts 178°
2026-05-08 20:55 14.05987 147.26058 38948 ft 486 kts 178°
2026-05-08 20:56 13.99247 147.26677 38938 ft 486 kts 178°
2026-05-08 20:56 13.92546 147.27293 38936 ft 486 kts 178°
2026-05-08 20:57 13.85808 147.27912 38943 ft 486 kts 178°
2026-05-08 20:57 13.79087 147.28528 38943 ft 487 kts 178°
2026-05-08 20:58 13.72325 147.29148 38934 ft 487 kts 178°
2026-05-08 20:58 13.65556 147.29769 38936 ft 487 kts 178°